GW0759 Weather Reports


Display with metric or nautical units.
time (UTC)temp
F
wind
direction
speed
MPH
gust
MPH
rain 1hr
in
rain 24hr
in
rain mn
in
humidity
%
barometer
mb
20260507214558 67 145 0.0 6.0 0.00 0.01 0.00 62 1014.1
20260507213103 67 92 0.0 5.0 0.00 0.01 0.00 63 1014.3
20260507211552 67 155 1.0 5.0 0.00 0.01 0.00 63 1014.4
20260507204557 67 145 1.0 7.0 0.00 0.01 0.00 61 1015.2
20260507203051 69 158 2.0 6.0 0.00 0.01 0.00 57 1014.9
20260507201556 69 105 1.0 5.0 0.00 0.01 0.00 56 1014.9
20260507200051 69 130 2.0 7.0 0.00 0.01 0.00 57 1014.7
20260507194618 69 132 1.0 4.0 0.00 0.01 0.00 56 1015.0
20260507193055 69 155 1.0 8.0 0.00 0.01 0.00 58 1015.1
20260507191554 70 112 1.0 7.0 0.00 0.01 0.00 57 1015.5
20260507190054 70 80 3.0 8.0 0.00 0.01 0.00 57 1016.1
20260507184552 69 335 0.0 8.0 0.00 0.01 0.00 55 1016.4
20260507183059 69 106 1.0 8.0 0.00 0.01 0.00 56 1016.2
20260507181556 68 0 2.0 9.0 0.00 0.01 0.00 57 1016.0
20260507180050 67 304 2.0 6.0 0.00 0.01 0.00 57 1016.2
20260507174600 66 360 5.0 9.0 0.00 0.01 0.00 59 1016.1
20260507173122 65 346 3.0 12.0 0.00 0.01 0.00 60 1016.5
20260507171557 65 344 6.0 11.0 0.00 0.01 0.00 58 1016.6
20260507170110 64 321 3.0 10.0 0.00 0.01 0.00 64 1016.8
20260507164557 65 164 2.0 10.0 0.00 0.01 0.00 64 1017.3
20260507163052 65 138 1.0 6.0 0.00 0.01 0.00 65 1017.5
20260507161602 64 19 4.0 12.0 0.00 0.01 0.00 68 1017.7
20260507160047 63 360 3.0 8.0 0.00 0.01 0.00 68 1017.6
20260507154551 63 336 0.0 10.0 0.00 0.01 0.00 72 1017.6
20260507153056 62 334 4.0 10.0 0.00 0.01 0.00 71 1017.6
20260507151558 61 355 4.0 9.0 0.00 0.01 0.00 73 1017.7
20260507150059 59 344 3.0 8.0 0.00 0.01 0.00 76 1017.8
20260507144602 59 328 3.0 9.0 0.00 0.02 0.00 77 1018.0
20260507143108 58 340 3.0 8.0 0.00 0.02 0.00 80 1018.1
20260507141633 57 360 4.0 9.0 0.00 0.02 0.00 83 1018.3
20260507140058 56 22 3.0 8.0 0.00 0.02 0.00 86 1018.1
20260507134603 55 31 2.0 5.0 0.00 0.02 0.00 89 1018.1
20260507133104 54 0 1.0 4.0 0.00 0.02 0.00 91 1018.1
20260507131556 53 339 2.0 3.0 0.00 0.02 0.00 92 1018.2
20260507130058 53 339 1.0 4.0 0.00 0.02 0.00 92 1018.2
20260507124553 52 0 0.0 2.0 0.00 0.02 0.00 92 1018.0
20260507123052 51 0 0.0 0.0 0.00 0.02 0.00 92 1018.0
20260507121554 51 0 0.0 0.0 0.00 0.02 0.00 92 1018.5
20260507120100 50 0 0.0 0.0 0.00 0.02 0.00 92 1018.4
20260507114607 50 0 0.0 0.0 0.00 0.02 0.00 92 1018.6
20260507113053 51 0 0.0 1.0 0.00 0.02 0.00 91 1018.1
20260507111552 51 339 0.0 1.0 0.00 0.02 0.00 91 1017.8
20260507110059 51 0 0.0 2.0 0.00 0.02 0.00 90 1017.8
20260507104551 51 339 2.0 3.0 0.00 0.02 0.00 90 1017.3
20260507103048 52 0 0.0 4.0 0.00 0.02 0.00 89 1017.1
20260507101559 52 339 0.0 4.0 0.00 0.02 0.00 89 1016.7
20260507100046 53 339 1.0 4.0 0.00 0.02 0.00 88 1016.5
20260507094555 53 339 3.0 6.0 0.00 0.02 0.00 87 1015.9
20260507093047 53 360 3.0 6.0 0.00 0.02 0.00 86 1016.0
20260507091549 54 345 2.0 8.0 0.00 0.02 0.00 85 1015.9
20260507090055 54 328 3.0 8.0 0.00 0.02 0.00 84 1015.8
20260507084550 55 336 3.0 5.0 0.00 0.02 0.00 84 1015.8
20260507083053 55 360 3.0 6.0 0.00 0.02 0.00 84 1015.6
20260507081549 55 340 4.0 10.0 0.00 0.02 0.00 84 1015.3
20260507080053 56 341 3.0 9.0 0.00 0.02 0.00 84 1015.5
20260507074553 56 22 2.0 9.0 0.00 0.02 0.00 85 1015.7
20260507073116 57 333 1.0 6.0 0.00 0.02 0.00 85 1015.3
20260507071548 57 340 3.0 10.0 0.00 0.02 0.00 83 1015.1
20260507070053 57 30 5.0 10.0 0.00 0.02 0.00 83 1014.8
20260507064605 57 12 4.0 9.0 0.00 0.02 0.00 83 1014.6
20260507063057 57 107 1.0 5.0 0.00 0.02 0.00 84 1014.6
20260507061549 57 277 0.0 6.0 0.00 0.02 0.00 84 1014.6
20260507060052 57 0 1.0 6.0 0.00 0.02 0.00 84 1014.7
20260507054550 58 347 1.0 8.0 0.00 0.02 0.00 85 1014.7
20260507053055 57 360 2.0 5.0 0.00 0.02 0.00 84 1014.7
20260507051550 57 0 0.0 5.0 0.00 0.02 0.00 85 1014.7
20260507050058 57 270 1.0 6.0 0.00 0.02 0.00 86 1014.6
20260507044555 57 156 0.0 4.0 0.00 0.02 0.02 87 1014.7
20260507043050 58 0 0.0 2.0 0.00 0.02 0.02 86 1014.9
20260507041550 58 127 1.0 4.0 0.00 0.02 0.02 87 1014.9
20260507040105 58 290 0.0 3.0 0.00 0.02 0.02 87 1014.9
20260507034618 58 327 0.0 3.0 0.00 0.02 0.02 88 1015.1
20260507033105 58 0 1.0 5.0 0.00 0.02 0.02 88 1015.1
20260507031551 58 341 2.0 6.0 0.00 0.02 0.02 88 1014.9
20260507030051 58 38 2.0 6.0 0.00 0.02 0.02 88 1014.7
20260507024603 58 0 1.0 6.0 0.00 0.02 0.02 87 1014.7
20260507023047 58 22 3.0 8.0 0.00 0.02 0.02 87 1014.3
20260507021552 58 341 1.0 4.0 0.00 0.02 0.02 86 1014.1
20260507020052 58 352 3.0 6.0 0.00 0.02 0.02 85 1013.7
20260507014554 58 337 2.0 5.0 0.00 0.02 0.02 85 1013.3
20260507013108 59 34 2.0 8.0 0.00 0.02 0.02 84 1013.1
20260507011548 59 5 2.0 7.0 0.00 0.02 0.02 82 1012.8
20260507010053 59 360 3.0 6.0 0.00 0.02 0.02 82 1012.5
20260507004551 59 23 3.0 8.0 0.00 0.02 0.02 81 1012.3
20260507003053 60 342 2.0 6.0 0.00 0.02 0.02 81 1012.5
20260507001607 59 336 1.0 8.0 0.00 0.02 0.02 82 1012.6
20260507000049 59 340 2.0 10.0 0.01 0.02 0.02 82 1012.5
20260506234557 59 11 4.0 10.0 0.01 0.02 0.02 82 1012.3
20260506233056 60 336 3.0 8.0 0.01 0.02 0.02 83 1012.1
20260506231554 59 355 2.0 13.0 0.01 0.02 0.02 83 1011.9
20260506230055 61 5 8.0 13.0 0.00 0.01 0.01 75 1011.8
20260506224607 62 355 4.0 9.0 0.00 0.01 0.01 73 1011.7
20260506223059 61 349 5.0 10.0 0.00 0.01 0.01 74 1011.9
20260506221556 62 317 3.0 10.0 0.00 0.01 0.01 73 1011.9